TimeCEST,TemperatureF,Dew PointF,Humidity,Sea Level PressureIn,VisibilityMPH,Wind Direction,Wind SpeedMPH,Gust SpeedMPH,PrecipitationIn,Events,Conditions,WindDirDegrees,DateUTC
12:15 AM,44.6,41.0,87,30.18,-9999.0,ENE,4.5,-,N/A,,Clear,70,2012-10-23 22:15:00
12:45 AM,44.6,41.0,87,30.18,-9999.0,ENE,4.5,-,N/A,,Clear,60,2012-10-23 22:45:00
1:15 AM,44.6,41.0,87,30.15,-9999.0,Calm,Calm,-,N/A,,Clear,0,2012-10-23 23:15:00
1:45 AM,42.8,41.0,93,30.15,-9999.0,NNE,2.2,-,N/A,,Clear,20,2012-10-23 23:45:00
2:15 AM,42.8,41.0,93,30.15,-9999.0,Calm,Calm,-,N/A,,Clear,0,2012-10-24 00:15:00
2:45 AM,42.8,41.0,93,30.15,5.0,NNW,2.2,-,N/A,,Clear,340,2012-10-24 00:45:00
3:15 AM,42.8,41.0,93,30.15,5.0,North,2.2,-,N/A,,Clear,350,2012-10-24 01:15:00
3:45 AM,-9999,-9999,N/A,-9999,3.1,Variable,4.5,-,N/A,Fog,Fog,0,2012-10-24 01:45:00
4:15 AM,42.8,41.0,93,30.12,5.0,North,2.2,-,N/A,,Clear,350,2012-10-24 02:15:00
4:45 AM,41.0,39.2,93,30.12,5.0,North,2.2,-,N/A,,Clear,350,2012-10-24 02:45:00
5:15 AM,41.0,39.2,93,30.12,3.7,Calm,Calm,-,N/A,,Clear,0,2012-10-24 03:15:00
5:45 AM,41.0,39.2,93,30.12,3.7,NNW,2.2,-,N/A,,Clear,330,2012-10-24 03:45:00
6:15 AM,41.0,39.2,93,30.12,5.0,NW,2.2,-,N/A,,Unknown,310,2012-10-24 04:15:00
6:45 AM,-9999,-9999,N/A,-9999,3.1,Variable,4.5,-,N/A,,Mist,0,2012-10-24 04:45:00
7:15 AM,41.0,39.2,93,30.12,2.5,NW,4.5,-,N/A,,Scattered Clouds,320,2012-10-24 05:15:00
7:45 AM,41.0,39.2,93,30.12,1.9,NNW,4.5,-,N/A,,Partly Cloudy,330,2012-10-24 05:45:00
8:15 AM,42.8,41.0,93,30.15,1.9,NNW,4.5,-,N/A,,Partly Cloudy,330,2012-10-24 06:15:00
8:45 AM,44.6,42.8,93,30.15,3.1,NNW,4.5,-,N/A,,Partly Cloudy,330,2012-10-24 06:45:00
9:15 AM,46.4,42.8,87,30.12,5.0,NW,4.5,-,N/A,,Unknown,320,2012-10-24 07:15:00
9:45 AM,48.2,42.8,82,30.15,-9999.0,NW,4.5,-,N/A,,Clear,320,2012-10-24 07:45:00
10:15 AM,50.0,44.6,82,30.15,6.2,NW,4.5,-,N/A,,Scattered Clouds,320,2012-10-24 08:15:00
10:45 AM,51.8,44.6,76,30.15,6.2,NW,4.5,-,N/A,,Scattered Clouds,320,2012-10-24 08:45:00
11:15 AM,53.6,46.4,77,30.12,-9999.0,NNW,2.2,-,N/A,,Clear,340,2012-10-24 09:15:00
11:45 AM,55.4,44.6,67,30.12,-9999.0,North,2.2,-,N/A,,Clear,350,2012-10-24 09:45:00
12:15 PM,57.2,44.6,63,30.12,-9999.0,NW,2.2,-,N/A,,Clear,310,2012-10-24 10:15:00
12:45 PM,57.2,44.6,63,30.12,-9999.0,Calm,Calm,-,N/A,,Clear,0,2012-10-24 10:45:00
1:15 PM,59.0,44.6,59,30.12,-9999.0,Calm,Calm,-,N/A,,Clear,0,2012-10-24 11:15:00
2:15 PM,60.8,44.6,55,30.09,-9999.0,West,4.5,-,N/A,,Clear,260,2012-10-24 12:15:00
2:45 PM,59.0,42.8,55,30.09,-9999.0,WNW,2.2,-,N/A,,Clear,300,2012-10-24 12:45:00
3:15 PM,60.8,42.8,52,30.09,-9999.0,WNW,2.2,-,N/A,,Clear,290,2012-10-24 13:15:00
3:45 PM,-9999,-9999,N/A,-9999,1.9,Variable,4.5,-,N/A,,Clear,0,2012-10-24 13:45:00
4:15 PM,59.0,44.6,59,30.06,-9999.0,WNW,2.2,-,N/A,,Clear,300,2012-10-24 14:15:00
4:45 PM,59.0,44.6,59,30.06,-9999.0,WNW,2.2,-,N/A,,Clear,300,2012-10-24 14:45:00
5:15 PM,57.2,46.4,67,30.06,6.2,West,4.5,-,N/A,,Scattered Clouds,280,2012-10-24 15:15:00
5:20 PM,-9999,-9999,N/A,-9999,5.0,Variable,4.5,-,N/A,,Clear,0,2012-10-24 15:20:00
5:45 PM,55.4,46.4,72,30.06,6.2,WNW,4.5,-,N/A,,Mostly Cloudy,300,2012-10-24 15:45:00
6:15 PM,53.6,46.4,77,30.06,6.2,NW,2.2,-,N/A,,Scattered Clouds,310,2012-10-24 16:15:00
6:45 PM,-9999,-9999,N/A,-9999,6.2,Variable,4.5,-,N/A,,Overcast,0,2012-10-24 16:45:00
7:15 PM,51.8,44.6,76,30.06,6.2,WNW,4.5,-,N/A,,Scattered Clouds,300,2012-10-24 17:15:00
7:45 PM,50.0,44.6,82,30.06,6.2,WNW,4.5,-,N/A,,Scattered Clouds,300,2012-10-24 17:45:00
8:15 PM,50.0,44.6,82,30.06,5.0,West,6.7,-,N/A,,Scattered Clouds,280,2012-10-24 18:15:00
8:45 PM,50.0,46.4,87,30.06,5.0,West,4.5,-,N/A,,Mostly Cloudy,280,2012-10-24 18:45:00
9:15 PM,51.8,46.4,82,30.06,5.0,West,4.5,-,N/A,,Mostly Cloudy,280,2012-10-24 19:15:00
9:45 PM,-9999,-9999,N/A,-9999,5.0,Variable,4.5,-,N/A,,Overcast,0,2012-10-24 19:45:00
10:15 PM,51.8,46.4,82,30.06,5.0,West,4.5,-,N/A,,Mostly Cloudy,280,2012-10-24 20:15:00
10:45 PM,51.8,46.4,82,30.06,5.0,West,4.5,-,N/A,,Mostly Cloudy,280,2012-10-24 20:45:00
11:15 PM,51.8,46.4,82,30.06,5.0,WNW,4.5,-,N/A,,Mostly Cloudy,290,2012-10-24 21:15:00
11:45 PM,51.8,46.4,82,30.06,3.7,West,4.5,-,N/A,,Overcast,280,2012-10-24 21:45:00